User: anonymous   Login
Location: *
(46.1333°S, 161.2167°W)
Time: 01:33:00
(UTC+00:00)
Language:

Radarsat Rocket - Orbit

View from above orbital plane
View from above orbital plane
View from above satellite
View from above satellite

Ground track
Ground track

The orbit data is extracted from the following two-line orbital elements,

1 23711U 95059B   20272.50190166 -.00000003 +00000-0 +79191-4 0  9998
2 23711 100.6279 275.8285 0368406 131.7424 018.6737 13.12720747192971
Epoch (UTC): 28 September 2020 12:02:44
Eccentricity: 0.0368406
inclination: 100.6279°
perigee height: 933 km
apogee height: 1492 km
right ascension of ascending node: 275.8285°
argument of perigee: 131.7424°
revolutions per day: 13.12720747
mean anomaly at epoch: 18.6737°
orbit number at epoch: 19297

The dashed part of the orbit path shows where the satellite is in the earth's shadow,  

DLR